Terminal Aerodrome Forecast
Issued by NWS Wakefield, VA

Home | Current Version | Previous Version | Text Only | Print | Product List | Glossary On
Versions: 1 2 3 4 5 6 7 8 9 10 11 12 13 14 15 16 17
000
FTUS41 KAKQ 231120
TAFRIC
TAF
KRIC 231120Z 2312/2412 24007KT P6SM SCT150
     FM231300 25005KT P6SM SCT120
     FM231600 31005KT P6SM BKN100
     FM231800 34005KT P6SM VCSH BKN070
     FM232000 01006KT P6SM SHRA BKN060
     FM240300 02005KT P6SM BKN060=

USA.gov is the U.S. government's official web portal to all federal, state and local government web resources and services.